Location: Newark
(41.6500°N, 71.4833°W)
Time: 23:14:42
(UTC+00:00)

Tiros 1 - Pass Details

Date: 26 January 2020
Orbit: 631 x 664 km, 48.4° (Epoch: 24 February)

Event Time Altitude Azimuth Distance (km) Brightness Sun altitude
Rises 23:03:19 0° 296° (WNW) 2,976 11.4 -13.2°
Reaches altitude 10° 23:05:43 10° 290° (WNW) 2,067 10.6 -13.6°
Maximum altitude 23:10:17 47° 218° (SW) 876 8.2 -14.4°
Drops below altitude 10° 23:14:52 10° 144° (SE) 2,070 9.5 -15.3°
Enters shadow 23:16:31 - 140° (SE) 2,690 10.1 -15.6°
